Weather History for Willmar, MN

Change the Weather History Date:

Wednesday, February 6, 2013

  Actual Average (KLJF) Record (KLJF)
Temperature  
Mean Temperature 16 °F -  
Max Temperature 28 °F 22 °F 50 °F (1987)
Min Temperature 3 °F 2 °F -26 °F (1967)
Degree Days  
Heating Degree Days 50    
Moisture  
Dew Point 12 °F    
Average Humidity 79    
Maximum Humidity 86    
Minimum Humidity 73    
Precipitation  
Precipitation 0.00 in - - ()
Sea Level Pressure  
Sea Level Pressure 29.95 in    
Wind  
Wind Speed 8 mph (ESE)    
Max Wind Speed 21 mph    
Max Gust Speed 24 mph    
Visibility 9 miles    
Events Snow    
Averages and records for this station are not official NWS values.
T = Trace of Precipitation, MM = Missing Value Source: NWS Daily Summary

Daily Weather History Graph

Daily Weather History Graph

Search for Another Location

Airport:

Trip Planner

Search our weather history database for the weather conditions in past years. The results will help you decide how hot, cold, wet, or windy it might be!

Date:

Astronomy

Feb. 06, 2013 Rise Set
Actual Time 7:34 AM CST 5:35 PM CST
Civil Twilight 7:03 AM CST 6:06 PM CST
Nautical Twilight 6:28 AM CST 6:41 PM CST
Astronomical Twilight 5:53 AM CST 7:15 PM CST
Moon 4:23 AM CST (2/6) 1:49 PM CST (2/6)
Length of Visible Light 11h 03m
Length of Day
10h 01m
Waning Crescent, 17% of the Moon is Illuminated
Feb 6
Waning Crescent
Feb 10
New
Feb 17
First Quarter
Feb 25
Full
Mar 4
Last Quarter

Hourly Weather History & Observations

Time (CST) Temp. Windchill Dew Point Humidity Pressure Visibility Wind Dir Wind Speed Gust Speed Precip Events Conditions
12:15 AM 8.6 °F -1.3 °F 3.2 °F 79% 30.07 in 10.0 mi WSW 5.8 mph - N/A   Overcast
12:36 AM 10.4 °F 4.0 °F 3.2 °F 73% 30.07 in 10.0 mi WSW 3.5 mph - N/A   Overcast
12:55 AM 10.4 °F - 3.2 °F 73% 30.07 in 10.0 mi Calm Calm - N/A   Overcast
1:15 AM 8.6 °F - 3.2 °F 79% 30.06 in 10.0 mi Calm Calm - N/A   Mostly Cloudy
1:36 AM 8.6 °F - 3.2 °F 79% 30.05 in 10.0 mi Calm Calm - N/A   Scattered Clouds
1:55 AM 8.6 °F - 3.2 °F 79% 30.05 in 10.0 mi Calm Calm - N/A   Clear
2:15 AM 6.8 °F - 3.2 °F 85% 30.05 in 10.0 mi Calm Calm - N/A   Clear
2:36 AM 6.8 °F -0.1 °F 3.2 °F 85% 30.05 in 10.0 mi South 3.5 mph - N/A   Clear
2:55 AM 3.2 °F - -0.4 °F 85% 30.04 in 10.0 mi Calm Calm - N/A   Clear
3:15 AM 5.0 °F -2.1 °F 1.4 °F 85% 30.03 in 10.0 mi SE 3.5 mph - N/A   Mostly Cloudy
3:36 AM 6.8 °F -0.1 °F 1.4 °F 79% 30.02 in 10.0 mi ESE 3.5 mph - N/A   Overcast
3:55 AM 6.8 °F - 3.2 °F 85% 30.01 in 10.0 mi Calm Calm - N/A   Overcast
4:15 AM 8.6 °F 2.0 °F 3.2 °F 79% 30.02 in 10.0 mi SE 3.5 mph - N/A   Scattered Clouds
4:36 AM 8.6 °F -1.3 °F 5.0 °F 85% 30.03 in 10.0 mi SSE 5.8 mph - N/A   Clear
4:55 AM 10.4 °F 0.8 °F 5.0 °F 79% 30.03 in 10.0 mi SE 5.8 mph - N/A   Clear
5:15 AM 10.4 °F 2.2 °F 5.0 °F 79% 30.04 in 10.0 mi SSE 4.6 mph - N/A   Clear
5:36 AM 10.4 °F -0.4 °F 5.0 °F 79% 30.02 in 10.0 mi ESE 6.9 mph - N/A   Scattered Clouds
5:55 AM 10.4 °F -1.5 °F 5.0 °F 79% 30.00 in 10.0 mi ESE 8.1 mph - N/A   Clear
6:15 AM 12.2 °F -0.2 °F 6.8 °F 79% 29.99 in 10.0 mi SE 9.2 mph - N/A   Mostly Cloudy
6:35 AM 12.2 °F -0.2 °F 6.8 °F 79% 29.99 in 10.0 mi SE 9.2 mph - N/A   Scattered Clouds
6:55 AM 12.2 °F 0.7 °F 6.8 °F 79% 30.00 in 10.0 mi SE 8.1 mph - N/A   Clear
7:15 AM 14.0 °F 2.0 °F 8.6 °F 79% 30.00 in 10.0 mi SE 9.2 mph - N/A   Clear
7:35 AM 14.0 °F 1.2 °F 8.6 °F 79% 29.99 in 10.0 mi ESE 10.4 mph - N/A   Mostly Cloudy
7:55 AM 15.8 °F 2.1 °F 8.6 °F 73% 29.98 in 10.0 mi SE 12.7 mph - N/A   Overcast
8:15 AM 15.8 °F 1.4 °F 10.4 °F 79% 29.97 in 10.0 mi SE 13.8 mph - N/A   Overcast
8:35 AM 15.8 °F 1.4 °F 10.4 °F 79% 29.97 in 10.0 mi ESE 13.8 mph - N/A Snow Light Snow
8:55 AM 15.8 °F 2.1 °F 10.4 °F 79% 29.97 in 10.0 mi ESE 12.7 mph - N/A   Clear
9:35 AM 17.6 °F 3.2 °F 12.2 °F 79% 29.96 in 10.0 mi ESE 15.0 mph - N/A   Clear
9:55 AM 17.6 °F 3.2 °F 12.2 °F 79% 29.95 in 10.0 mi ESE 15.0 mph - N/A   Clear
10:15 AM 19.4 °F 5.0 °F 14.0 °F 80% 29.94 in 10.0 mi SE 16.1 mph - N/A   Clear
10:35 AM 19.4 °F 5.0 °F 14.0 °F 80% 29.93 in 10.0 mi SE 16.1 mph - N/A   Clear
10:55 AM 21.2 °F 6.8 °F 15.8 °F 80% 29.91 in 10.0 mi SE 17.3 mph - N/A   Scattered Clouds
11:15 AM 21.2 °F 5.6 °F 15.8 °F 80% 29.90 in 7.0 mi SE 20.7 mph 24.2 mph N/A   Scattered Clouds
11:35 AM 23.0 °F 8.3 °F 17.6 °F 80% 29.89 in 10.0 mi SE 19.6 mph - N/A   Scattered Clouds
11:55 AM 23.0 °F 9.2 °F 17.6 °F 80% 29.90 in 10.0 mi SE 17.3 mph - N/A   Scattered Clouds
12:15 PM 23.0 °F 10.6 °F 17.6 °F 80% 29.91 in 10.0 mi SE 13.8 mph - N/A   Clear
12:35 PM 24.8 °F 12.9 °F 17.6 °F 74% 29.91 in 10.0 mi SE 13.8 mph - N/A   Clear
12:55 PM 24.8 °F 14.0 °F 17.6 °F 74% 29.90 in 10.0 mi SE 11.5 mph - N/A   Clear
1:15 PM 24.8 °F 11.9 °F 17.6 °F 74% 29.88 in 10.0 mi SE 16.1 mph - N/A   Clear
1:35 PM 24.8 °F 12.9 °F 17.6 °F 74% 29.87 in 10.0 mi ESE 13.8 mph - N/A   Clear
1:55 PM 26.6 °F 14.3 °F 19.4 °F 74% 29.86 in 10.0 mi SE 16.1 mph - N/A   Clear
2:15 PM 26.6 °F 15.2 °F 19.4 °F 74% 29.85 in 10.0 mi SE 13.8 mph - N/A   Clear
2:35 PM 26.6 °F 15.2 °F 19.4 °F 74% 29.85 in 10.0 mi ESE 13.8 mph - N/A   Clear
2:55 PM 28.4 °F 19.7 °F 21.2 °F 74% 29.86 in 10.0 mi ESE 9.2 mph - N/A   Clear
3:15 PM 28.4 °F 18.5 °F 21.2 °F 74% 29.86 in 10.0 mi ESE 11.5 mph - N/A   Clear
3:35 PM 26.6 °F 15.2 °F 19.4 °F 74% 29.86 in 10.0 mi ESE 13.8 mph - N/A   Clear
3:55 PM 26.6 °F 16.2 °F 19.4 °F 74% 29.86 in 10.0 mi ESE 11.5 mph - N/A   Clear
4:15 PM 26.6 °F 16.2 °F 19.4 °F 74% 29.86 in 10.0 mi East 11.5 mph - N/A   Clear
4:35 PM 26.6 °F 16.8 °F 19.4 °F 74% 29.86 in 7.0 mi East 10.4 mph - N/A   Clear
4:55 PM 24.8 °F 13.4 °F 17.6 °F 74% 29.86 in 7.0 mi East 12.7 mph - N/A   Clear
5:15 PM 24.8 °F 14.6 °F 17.6 °F 74% 29.87 in 7.0 mi ENE 10.4 mph - N/A   Clear
5:35 PM 23.0 °F 12.4 °F 17.6 °F 80% 29.88 in 7.0 mi East 10.4 mph - N/A   Clear
5:55 PM 23.0 °F 13.1 °F 15.8 °F 74% 29.89 in 7.0 mi ENE 9.2 mph - N/A   Clear
6:15 PM 21.2 °F 10.9 °F 15.8 °F 80% 29.89 in 7.0 mi ENE 9.2 mph - N/A   Clear
6:35 PM 19.4 °F 9.5 °F 15.8 °F 86% 29.90 in 7.0 mi ENE 8.1 mph - N/A   Clear
6:55 PM 19.4 °F 8.6 °F 15.8 °F 86% 29.90 in 7.0 mi ENE 9.2 mph - N/A   Clear
7:15 PM 19.4 °F 8.6 °F 14.0 °F 80% 29.91 in 7.0 mi ENE 9.2 mph - N/A   Clear
7:35 PM 19.4 °F 7.2 °F 14.0 °F 80% 29.92 in 7.0 mi ENE 11.5 mph - N/A   Clear
7:55 PM 19.4 °F 7.2 °F 14.0 °F 80% 29.92 in 7.0 mi ENE 11.5 mph - N/A   Clear
8:15 PM 17.6 °F 5.7 °F 12.2 °F 79% 29.92 in 7.0 mi ENE 10.4 mph - N/A   Clear
8:35 PM 17.6 °F 5.0 °F 12.2 °F 79% 29.92 in 7.0 mi ENE 11.5 mph - N/A   Clear
8:55 PM 17.6 °F 5.7 °F 12.2 °F 79% 29.93 in 5.0 mi ENE 10.4 mph - N/A   Haze
9:15 PM 17.6 °F 5.7 °F 12.2 °F 79% 29.94 in 5.0 mi ENE 10.4 mph - N/A   Haze
9:35 PM 17.6 °F 6.4 °F 12.2 °F 79% 29.96 in 5.0 mi ENE 9.2 mph - N/A   Haze
9:55 PM 17.6 °F 6.4 °F 12.2 °F 79% 29.96 in 5.0 mi NE 9.2 mph - N/A   Clear
10:15 PM 17.6 °F 6.4 °F 12.2 °F 79% 29.96 in 5.0 mi NE 9.2 mph - N/A   Clear
10:35 PM 17.6 °F 6.4 °F 14.0 °F 86% 29.96 in 5.0 mi NE 9.2 mph - N/A   Clear
10:55 PM 19.4 °F 8.6 °F 15.8 °F 86% 29.97 in 5.0 mi NE 9.2 mph - N/A   Haze
11:15 PM 21.2 °F 10.1 °F 17.6 °F 86% 29.98 in 5.0 mi NE 10.4 mph - N/A   Overcast
11:35 PM 21.2 °F 8.9 °F 17.6 °F 86% 29.98 in 5.0 mi NE 12.7 mph - N/A   Haze
11:55 PM 21.2 °F 8.9 °F 17.6 °F 86% 29.99 in 7.0 mi NE 12.7 mph - N/A   Overcast